Total_Precipitation_Accumulation
0.01 0.04 0.14 0.22 0.24 0.28 0.33 0.20 0.13 0.04 0.02 0.02 0.01 0.01 0.01 0.01 0.02 0.09 0.01 0.00 0.00 0.00 0.01 0.03 0.02 0.01 0.01 0.02 0.03 0.04 0.03 0.03 0.04 0.07 0.10 0.12 0.14 0.11 0.07 0.04 0.03 0.03 0.02 0.02 0.02 0.02 0.03 0.03 0.03
0.01 0.04 0.14 0.19 0.27 0.47 0.37 0.16 0.06 0.03 0.02 0.02 0.02 0.01 0.00 0.00 0.00 0.00 0.00 0.00 0.00 0.00 0.00 0.01 0.02 0.01 0.01 0.02 0.03 0.05 0.05 0.03 0.04 0.10 0.11 0.10 0.11 0.10 0.09 0.08 0.06 0.06 0.03 0.02 0.02 0.02 0.02 0.02 0.01
0.01 0.03 0.10 0.15 0.29 0.39 0.26 0.14 0.06 0.05 0.04 0.03 0.02 0.01 0.00 0.00 0.00 0.00 0.00 0.00 0.00 0.00 0.00 0.01 0.01 0.01 0.01 0.02 0.03 0.05 0.07 0.06 0.07 0.10 0.11 0.08 0.09 0.11 0.10 0.11 0.12 0.09 0.05 0.03 0.02 0.02 0.02 0.02 0.01
0.01 0.02 0.06 0.10 0.16 0.19 0.17 0.09 0.04 0.03 0.02 0.02 0.02 0.01 0.01 0.01 0.00 0.00 0.00 0.00 0.00 0.00 0.00 0.01 0.01 0.01 0.01 0.01 0.02 0.04 0.06 0.08 0.08 0.10 0.10 0.10 0.12 0.12 0.08 0.11 0.12 0.09 0.06 0.04 0.05 0.05 0.03 0.02 0.01
0.01 0.02 0.04 0.08 0.11 0.11 0.10 0.07 0.04 0.04 0.03 0.02 0.02 0.03 0.03 0.01 0.00 0.00 0.00 0.00 0.00 0.00 0.01 0.01 0.02 0.01 0.01 0.01 0.02 0.02 0.03 0.04 0.06 0.09 0.11 0.10 0.11 0.12 0.10 0.08 0.07 0.06 0.04 0.04 0.09 0.11 0.10 0.07 0.05
0.01 0.01 0.03 0.06 0.08 0.08 0.09 0.07 0.04 0.06 0.03 0.03 0.03 0.03 0.03 0.01 0.00 0.00 0.01 0.01 0.00 0.00 0.01 0.02 0.02 0.02 0.02 0.02 0.02 0.02 0.03 0.03 0.04 0.06 0.08 0.06 0.04 0.04 0.05 0.05 0.06 0.04 0.04 0.07 0.09 0.09 0.12 0.15 0.12
0.01 0.01 0.02 0.03 0.04 0.04 0.05 0.06 0.06 0.06 0.03 0.02 0.02 0.03 0.03 0.01 0.01 0.01 0.02 0.01 0.01 0.01 0.01 0.01 0.02 0.02 0.02 0.02 0.02 0.03 0.03 0.04 0.04 0.04 0.04 0.04 0.03 0.03 0.03 0.04 0.04 0.03 0.04 0.06 0.07 0.06 0.07 0.11 0.12
0.01 0.01 0.01 0.01 0.02 0.02 0.03 0.05 0.06 0.06 0.03 0.02 0.02 0.02 0.03 0.02 0.01 0.01 0.02 0.02 0.03 0.02 0.01 0.01 0.01 0.02 0.03 0.02 0.02 0.03 0.03 0.04 0.04 0.04 0.04 0.04 0.04 0.04 0.05 0.06 0.07 0.06 0.07 0.09 0.09 0.08 0.09 0.12 0.12
0.00 0.00 0.00 0.00 0.01 0.01 0.02 0.05 0.06 0.03 0.04 0.02 0.01 0.01 0.02 0.02 0.02 0.02 0.04 0.09 0.08 0.04 0.02 0.01 0.01 0.02 0.02 0.02 0.02 0.03 0.04 0.04 0.05 0.05 0.05 0.05 0.05 0.07 0.11 0.12 0.18 0.20 0.24 0.26 0.26 0.23 0.22 0.20 0.18
0.00 0.00 0.00 0.00 0.00 0.00 0.01 0.04 0.05 0.03 0.05 0.05 0.03 0.03 0.03 0.06 0.10 0.08 0.05 0.12 0.12 0.10 0.07 0.04 0.03 0.03 0.02 0.03 0.05 0.06 0.07 0.09 0.07 0.10 0.13 0.13 0.15 0.16 0.12 0.18 0.37 0.57 0.71 0.69 0.68 0.66 0.53 0.46 0.47
0.00 0.00 0.00 0.00 0.00 0.00 0.01 0.01 0.03 0.03 0.04 0.08 0.11 0.07 0.06 0.12 0.09 0.06 0.10 0.20 0.24 0.19 0.13 0.10 0.08 0.09 0.08 0.10 0.12 0.13 0.15 0.19 0.16 0.17 0.23 0.29 0.29 0.23 0.19 0.25 0.42 0.62 0.80 0.90 1.17 1.24 0.97 1.00 0.99
0.00 0.00 0.00 0.00 0.00 0.00 0.00 0.00 0.01 0.03 0.04 0.10 0.18 0.14 0.11 0.11 0.07 0.08 0.21 0.31 0.34 0.25 0.22 0.16 0.16 0.21 0.23 0.22 0.27 0.30 0.29 0.30 0.30 0.35 0.40 0.44 0.51 0.47 0.43 0.51 0.59 0.77 0.87 1.14 1.24 1.31 1.19 1.07 0.98
0.00 0.00 0.00 0.00 0.00 0.00 0.00 0.00 0.01 0.03 0.04 0.06 0.07 0.09 0.08 0.07 0.09 0.14 0.25 0.34 0.46 0.51 0.46 0.40 0.36 0.50 0.52 0.45 0.48 0.47 0.49 0.49 0.50 0.56 0.63 0.67 0.71 0.69 0.73 0.80 0.87 0.80 0.92 1.17 1.34 1.28 1.41 1.42 1.27
0.00 0.00 0.00 0.00 0.00 0.00 0.00 0.01 0.02 0.04 0.04 0.05 0.07 0.08 0.12 0.21 0.22 0.27 0.35 0.55 0.50 0.51 0.58 0.63 0.65 0.74 0.74 0.70 0.76 0.81 0.74 0.72 0.71 0.83 0.89 0.93 0.91 0.95 1.05 1.08 1.11 0.98 0.99 1.19 1.40 1.32 1.57 1.49 1.48
0.00 0.00 0.00 0.00 0.00 0.01 0.00 0.01 0.03 0.05 0.06 0.07 0.10 0.13 0.20 0.27 0.36 0.49 0.59 0.65 0.58 0.62 0.71 0.78 0.86 1.04 1.17 1.21 1.26 1.29 1.19 1.08 1.06 1.07 1.14 1.22 1.15 1.21 1.23 1.22 1.21 1.24 1.22 1.37 1.45 1.48 1.59 1.43 1.31
0.00 0.00 0.00 0.01 0.01 0.01 0.01 0.04 0.06 0.08 0.10 0.11 0.15 0.23 0.33 0.40 0.53 0.77 0.90 0.77 0.73 0.83 0.90 0.95 1.09 1.43 1.71 1.77 1.76 1.69 1.52 1.37 1.30 1.34 1.32 1.42 1.41 1.49 1.60 1.41 1.32 1.55 1.59 1.67 1.83 1.77 1.79 1.79 1.62
0.00 0.00 0.00 0.00 0.01 0.02 0.02 0.06 0.08 0.11 0.15 0.18 0.22 0.31 0.49 0.67 0.82 0.87 0.89 0.92 1.02 1.16 1.18 1.31 1.52 1.78 2.01 2.07 2.14 1.95 1.77 1.63 1.49 1.41 1.39 1.44 1.59 1.80 2.04 1.79 1.76 1.87 1.88 1.87 1.67 1.99 2.20 2.10 1.91
0.00 0.00 0.01 0.01 0.02 0.02 0.04 0.09 0.15 0.18 0.22 0.31 0.39 0.47 0.59 0.72 0.86 0.96 1.05 1.15 1.26 1.45 1.56 1.64 1.77 2.01 2.40 2.70 2.74 2.39 2.04 1.80 1.67 1.60 1.63 1.73 1.94 2.14 2.35 2.08 2.01 2.05 2.07 1.99 2.04 2.30 2.27 2.03 1.97
0.00 0.02 0.03 0.03 0.03 0.03 0.05 0.13 0.23 0.32 0.46 0.64 0.69 0.63 0.68 0.79 1.05 1.26 1.40 1.35 1.53 1.69 1.89 2.01 2.20 2.66 3.13 3.13 2.86 2.68 2.40 2.19 2.02 1.90 1.85 1.88 1.91 2.09 2.33 2.15 2.28 2.22 2.05 2.00 2.11 2.30 2.27 2.02 2.20
0.01 0.02 0.04 0.03 0.04 0.05 0.11 0.22 0.34 0.47 0.65 0.70 0.54 0.52 0.69 0.91 1.21 1.45 1.57 1.56 1.64 1.95 2.34 2.52 2.67 3.13 3.43 3.35 3.23 3.04 2.85 2.50 2.37 2.25 2.12 1.93 1.85 1.98 2.07 2.23 2.10 2.08 2.06 2.05 2.18 2.29 2.09 1.80 2.22
0.01 0.02 0.03 0.04 0.05 0.09 0.14 0.35 0.56 0.68 0.79 0.70 0.60 0.64 0.75 0.85 1.12 1.31 1.28 1.33 1.43 1.59 1.81 2.10 2.53 3.00 3.18 3.27 3.23 3.13 3.06 2.65 2.50 2.35 2.19 2.01 1.89 1.86 1.96 2.07 2.07 1.97 1.95 1.94 2.09 2.14 2.08 1.94 2.06
0.01 0.02 0.02 0.02 0.04 0.09 0.15 0.39 0.70 1.02 1.07 0.79 0.66 0.68 0.76 1.03 1.21 1.10 1.00 1.09 1.18 1.18 1.44 1.71 2.09 2.47 2.71 2.87 2.91 2.95 2.87 2.68 2.62 2.46 2.13 1.91 1.79 1.79 1.85 1.87 1.85 1.85 1.80 1.77 1.73 1.82 2.12 2.15 1.96
0.02 0.02 0.02 0.02 0.03 0.05 0.10 0.32 0.74 1.21 1.26 0.82 0.69 0.73 0.89 1.09 1.04 0.92 0.93 1.05 1.09 1.13 1.37 1.59 1.83 2.13 2.38 2.49 2.49 2.50 2.41 2.34 2.29 2.15 1.92 1.77 1.66 1.60 1.51 1.54 1.69 1.73 1.66 1.60 1.61 1.72 1.86 1.88 1.85
0.03 0.04 0.05 0.06 0.09 0.18 0.23 0.38 0.80 1.17 1.01 0.71 0.68 0.64 0.73 0.88 0.90 0.92 0.98 1.04 1.10 1.28 1.47 1.68 1.89 2.14 2.27 2.13 1.98 1.96 1.97 2.01 1.94 1.81 1.66 1.50 1.42 1.35 1.29 1.37 1.49 1.53 1.52 1.50 1.46 1.51 1.63 1.68 1.70
0.05 0.07 0.18 0.31 0.43 0.53 0.48 0.59 1.10 0.97 0.71 0.62 0.65 0.64 0.62 0.70 0.75 0.80 0.98 1.19 1.24 1.21 1.23 1.42 1.71 2.02 2.05 1.88 1.71 1.63 1.62 1.68 1.67 1.58 1.50 1.44 1.32 1.24 1.21 1.23 1.23 1.26 1.30 1.35 1.38 1.40 1.47 1.59 1.63
0.08 0.12 0.28 0.34 0.32 0.45 0.47 0.83 1.23 0.90 0.63 0.53 0.55 0.58 0.52 0.46 0.39 0.40 0.49 0.60 0.57 0.57 0.59 0.65 0.78 1.00 1.12 1.10 1.10 1.10 1.14 1.21 1.26 1.36 1.33 1.33 1.28 1.17 1.11 1.06 1.03 1.08 1.10 1.14 1.26 1.36 1.44 1.54 1.61
0.19 0.21 0.19 0.31 0.31 0.39 0.50 0.74 0.80 0.59 0.53 0.49 0.50 0.48 0.42 0.35 0.29 0.28 0.29 0.32 0.37 0.38 0.42 0.51 0.58 0.66 0.72 0.72 0.71 0.73 0.79 0.89 0.96 1.03 1.07 1.10 1.10 1.05 1.04 1.04 1.05 1.02 1.03 1.08 1.17 1.26 1.30 1.41 1.51
0.15 0.21 0.35 0.51 0.51 0.44 0.45 0.79 0.99 0.90 0.81 0.67 0.61 0.55 0.44 0.34 0.29 0.27 0.28 0.32 0.40 0.48 0.57 0.63 0.62 0.58 0.55 0.55 0.56 0.54 0.60 0.66 0.72 0.75 0.78 0.78 0.80 0.83 0.85 0.86 0.89 0.91 0.91 0.93 1.02 1.11 1.19 1.28 1.34
0.15 0.21 0.35 0.48 0.50 0.51 0.53 0.67 0.60 0.66 0.76 0.83 0.83 0.69 0.48 0.35 0.30 0.29 0.28 0.31 0.36 0.45 0.52 0.59 0.60 0.57 0.55 0.53 0.53 0.53 0.52 0.52 0.55 0.61 0.62 0.64 0.66 0.68 0.69 0.72 0.75 0.79 0.84 0.89 0.92 0.97 1.06 1.10 1.13
0.12 0.20 0.33 0.50 0.54 0.55 0.58 0.62 0.36 0.38 0.50 0.59 0.58 0.46 0.33 0.27 0.25 0.24 0.23 0.25 0.28 0.35 0.42 0.46 0.48 0.52 0.52 0.47 0.48 0.50 0.48 0.45 0.47 0.48 0.49 0.52 0.56 0.58 0.59 0.62 0.65 0.70 0.76 0.84 0.93 0.99 1.04 1.06 1.06